Time,TemperatureF,DewpointF,PressureIn,WindDirection,WindDirectionDegrees,WindSpeedMPH,WindSpeedGustMPH,Humidity,HourlyPrecipIn,Conditions,Clouds,dailyrainin,SoftwareType,DateUTC
2013-03-28 00:00:00,37.2,27.6,30.11,West,279,4.0,4.0,68,0.00,,,0.00,Wunderground v.1.15,2013-03-28 04:00:00,
2013-03-28 00:05:00,37.0,27.4,30.11,West,277,5.0,6.0,68,0.00,,,0.00,Wunderground v.1.15,2013-03-28 04:05:00,
2013-03-28 00:10:00,37.2,27.6,30.11,WNW,287,5.0,6.0,68,0.00,,,0.00,Wunderground v.1.15,2013-03-28 04:10:00,
2013-03-28 00:15:00,37.2,27.6,30.11,WNW,303,5.0,5.0,68,0.00,,,0.00,Wunderground v.1.15,2013-03-28 04:15:00,
2013-03-28 00:20:00,37.3,27.7,30.11,WNW,295,5.0,6.0,68,0.00,,,0.00,Wunderground v.1.15,2013-03-28 04:20:00,
2013-03-28 00:35:00,38.1,28.5,30.11,West,262,5.0,10.0,68,0.00,,,0.00,Wunderground v.1.15,2013-03-28 04:35:00,
2013-03-28 00:40:00,38.2,28.6,30.11,West,270,7.0,10.0,68,0.00,,,0.00,Wunderground v.1.15,2013-03-28 04:40:00,
2013-03-28 00:45:00,38.1,28.5,30.11,WNW,293,6.0,6.0,68,0.00,,,0.00,Wunderground v.1.15,2013-03-28 04:45:00,
2013-03-28 00:55:00,37.6,28.3,30.11,West,281,5.0,5.0,69,0.00,,,0.00,Wunderground v.1.15,2013-03-28 04:55:00,
2013-03-28 01:00:00,37.3,28.4,30.11,SW,227,4.0,6.0,70,0.00,,,0.00,Wunderground v.1.15,2013-03-28 05:00:00,
2013-03-28 01:10:00,37.0,28.5,30.11,West,265,5.0,8.0,71,0.00,,,0.00,Wunderground v.1.15,2013-03-28 05:10:00,
2013-03-28 01:15:00,36.9,28.7,30.11,WNW,283,5.0,5.0,72,0.00,,,0.00,Wunderground v.1.15,2013-03-28 05:15:00,
2013-03-28 01:25:00,36.9,28.7,30.11,WNW,284,6.0,6.0,72,0.00,,,0.00,Wunderground v.1.15,2013-03-28 05:25:00,
2013-03-28 01:30:00,37.0,28.8,30.11,WNW,284,6.0,6.0,72,0.00,,,0.00,Wunderground v.1.15,2013-03-28 05:30:00,
2013-03-28 01:40:00,36.9,28.7,30.11,WNW,289,4.0,5.0,72,0.00,,,0.00,Wunderground v.1.15,2013-03-28 05:40:00,
2013-03-28 01:50:00,36.9,28.7,30.10,WNW,286,4.0,4.0,72,0.00,,,0.00,Wunderground v.1.15,2013-03-28 05:50:00,
2013-03-28 02:00:00,36.8,28.6,30.11,WSW,246,3.0,3.0,72,0.00,,,0.00,Wunderground v.1.15,2013-03-28 06:00:00,
2013-03-28 02:05:00,36.6,28.4,30.10,WSW,246,2.0,3.0,72,0.00,,,0.00,Wunderground v.1.15,2013-03-28 06:05:00,
2013-03-28 02:15:00,36.3,28.5,30.10,WSW,246,2.0,5.0,73,0.00,,,0.00,Wunderground v.1.15,2013-03-28 06:15:00,
2013-03-28 02:20:00,36.2,28.4,30.10,WSW,248,3.0,3.0,73,0.00,,,0.00,Wunderground v.1.15,2013-03-28 06:20:00,
2013-03-28 02:30:00,36.0,28.2,30.10,WSW,248,2.0,2.0,73,0.00,,,0.00,Wunderground v.1.15,2013-03-28 06:30:00,
2013-03-28 02:40:00,36.3,28.1,30.10,WSW,248,2.0,2.0,72,0.00,,,0.00,Wunderground v.1.15,2013-03-28 06:40:00,
2013-03-28 02:50:00,36.8,28.3,30.10,WSW,252,3.0,3.0,71,0.00,,,0.00,Wunderground v.1.15,2013-03-28 06:50:00,
2013-03-28 03:00:00,36.8,28.6,30.09,WSW,252,1.0,4.0,72,0.00,,,0.00,Wunderground v.1.15,2013-03-28 07:00:00,
2013-03-28 03:10:00,36.9,28.0,30.09,South,188,2.0,5.0,70,0.00,,,0.00,Wunderground v.1.15,2013-03-28 07:10:00,
2013-03-28 03:20:00,37.0,27.8,30.09,SSW,197,2.0,2.0,69,0.00,,,0.00,Wunderground v.1.15,2013-03-28 07:20:00,
2013-03-28 03:25:00,37.2,28.0,30.09,WNW,285,3.0,3.0,69,0.00,,,0.00,Wunderground v.1.15,2013-03-28 07:25:00,
2013-03-28 03:30:00,37.2,28.0,30.09,SSW,213,3.0,3.0,69,0.00,,,0.00,Wunderground v.1.15,2013-03-28 07:30:00,
2013-03-28 03:40:00,37.2,27.6,30.09,SSW,206,2.0,2.0,68,0.00,,,0.00,Wunderground v.1.15,2013-03-28 07:40:00,
2013-03-28 03:45:00,37.0,27.8,30.09,SSW,206,2.0,2.0,69,0.00,,,0.00,Wunderground v.1.15,2013-03-28 07:45:00,
2013-03-28 03:55:00,36.9,27.7,30.09,SSW,206,2.0,2.0,69,0.00,,,0.00,Wunderground v.1.15,2013-03-28 07:55:00,
2013-03-28 04:00:00,36.9,27.7,30.09,SSW,206,2.0,2.0,69,0.00,,,0.00,Wunderground v.1.15,2013-03-28 08:00:00,
2013-03-28 04:10:00,37.0,27.4,30.08,West,268,2.0,2.0,68,0.00,,,0.00,Wunderground v.1.15,2013-03-28 08:10:00,
2013-03-28 04:20:00,37.5,27.2,30.08,SW,236,6.0,6.0,66,0.00,,,0.00,Wunderground v.1.15,2013-03-28 08:20:00,
2013-03-28 04:25:00,37.6,26.9,30.08,West,277,6.0,7.0,65,0.00,,,0.00,Wunderground v.1.15,2013-03-28 08:25:00,
2013-03-28 04:30:00,37.6,26.9,30.08,SW,227,5.0,7.0,65,0.00,,,0.00,Wunderground v.1.15,2013-03-28 08:30:00,
2013-03-28 04:40:00,37.6,26.5,30.08,West,276,6.0,6.0,64,0.00,,,0.00,Wunderground v.1.15,2013-03-28 08:40:00,
2013-03-28 04:45:00,37.8,26.7,30.08,West,259,6.0,6.0,64,0.00,,,0.00,Wunderground v.1.15,2013-03-28 08:45:00,
2013-03-28 04:55:00,37.5,26.4,30.08,West,260,6.0,10.0,64,0.00,,,0.00,Wunderground v.1.15,2013-03-28 08:55:00,
2013-03-28 05:00:00,37.3,26.6,30.08,WSW,240,6.0,6.0,65,0.00,,,0.00,Wunderground v.1.15,2013-03-28 09:00:00,
2013-03-28 05:05:00,37.2,26.5,30.08,West,280,5.0,6.0,65,0.00,,,0.00,Wunderground v.1.15,2013-03-28 09:05:00,
2013-03-28 05:15:00,37.0,26.7,30.08,WSW,242,4.0,6.0,66,0.00,,,0.00,Wunderground v.1.15,2013-03-28 09:15:00,
2013-03-28 05:25:00,37.2,26.9,30.08,West,269,6.0,6.0,66,0.00,,,0.00,Wunderground v.1.15,2013-03-28 09:25:00,
2013-03-28 05:35:00,37.3,26.6,30.08,West,263,8.0,12.0,65,0.00,,,0.00,Wunderground v.1.15,2013-03-28 09:35:00,
2013-03-28 05:40:00,37.3,26.6,30.08,WNW,295,7.0,7.0,65,0.00,,,0.00,Wunderground v.1.15,2013-03-28 09:40:00,
2013-03-28 05:50:00,37.3,26.6,30.08,West,275,7.0,7.0,65,0.00,,,0.00,Wunderground v.1.15,2013-03-28 09:50:00,
2013-03-28 06:00:00,37.5,26.8,30.08,SW,236,7.0,7.0,65,0.00,,,0.00,Wunderground v.1.15,2013-03-28 10:00:00,
2013-03-28 06:10:00,37.3,27.0,30.08,West,277,7.0,7.0,66,0.00,,,0.00,Wunderground v.1.15,2013-03-28 10:10:00,
2013-03-28 06:20:00,37.5,27.2,30.08,WSW,253,5.0,5.0,66,0.00,,,0.00,Wunderground v.1.15,2013-03-28 10:20:00,
2013-03-28 06:30:00,37.3,27.0,30.08,WSW,248,4.0,4.0,66,0.00,,,0.00,Wunderground v.1.15,2013-03-28 10:30:00,
2013-03-28 06:35:00,37.3,27.0,30.08,West,264,5.0,5.0,66,0.00,,,0.00,Wunderground v.1.15,2013-03-28 10:35:00,
2013-03-28 06:45:00,37.3,27.0,30.09,WSW,237,5.0,5.0,66,0.00,,,0.00,Wunderground v.1.15,2013-03-28 10:45:00,
2013-03-28 06:55:00,37.5,27.2,30.09,WSW,246,5.0,5.0,66,0.00,,,0.00,Wunderground v.1.15,2013-03-28 10:55:00,
2013-03-28 07:00:00,37.5,27.2,30.09,West,261,4.0,4.0,66,0.00,,,0.00,Wunderground v.1.15,2013-03-28 11:00:00,
2013-03-28 07:10:00,37.6,27.6,30.09,WSW,239,4.0,4.0,67,0.00,,,0.00,Wunderground v.1.15,2013-03-28 11:10:00,
2013-03-28 07:15:00,37.6,27.6,30.10,WSW,249,3.0,7.0,67,0.00,,,0.00,Wunderground v.1.15,2013-03-28 11:15:00,
2013-03-28 07:25:00,37.5,27.5,30.10,WSW,249,2.0,2.0,67,0.00,,,0.00,Wunderground v.1.15,2013-03-28 11:25:00,
2013-03-28 07:35:00,37.6,27.6,30.10,SW,229,2.0,5.0,67,0.00,,,0.00,Wunderground v.1.15,2013-03-28 11:35:00,
2013-03-28 07:40:00,37.8,27.8,30.10,SW,233,2.0,5.0,67,0.00,,,0.00,Wunderground v.1.15,2013-03-28 11:40:00,
2013-03-28 07:50:00,37.8,27.8,30.10,SW,233,2.0,5.0,67,0.00,,,0.00,Wunderground v.1.15,2013-03-28 11:50:00,
2013-03-28 08:00:00,38.2,27.8,30.10,SW,233,2.0,2.0,66,0.00,,,0.00,Wunderground v.1.15,2013-03-28 12:00:00,
2013-03-28 08:10:00,38.3,27.9,30.10,WSW,252,2.0,2.0,66,0.00,,,0.00,Wunderground v.1.15,2013-03-28 12:10:00,
2013-03-28 08:15:00,38.6,28.2,30.10,West,262,4.0,6.0,66,0.00,,,0.00,Wunderground v.1.15,2013-03-28 12:15:00,
2013-03-28 08:25:00,39.2,28.4,30.10,WNW,292,6.0,6.0,65,0.00,,,0.00,Wunderground v.1.15,2013-03-28 12:25:00,
2013-03-28 08:30:00,39.5,28.3,30.10,West,261,6.0,6.0,64,0.00,,,0.00,Wunderground v.1.15,2013-03-28 12:30:00,
2013-03-28 08:40:00,39.6,28.0,30.10,WNW,300,7.0,7.0,63,0.00,,,0.00,Wunderground v.1.15,2013-03-28 12:40:00,
2013-03-28 08:45:00,39.6,28.0,30.10,WNW,286,7.0,9.0,63,0.00,,,0.00,Wunderground v.1.15,2013-03-28 12:45:00,
2013-03-28 08:55:00,39.8,28.6,30.10,West,275,5.0,5.0,64,0.00,,,0.00,Wunderground v.1.15,2013-03-28 12:55:00,
2013-03-28 09:05:00,40.2,28.2,30.11,NW,313,6.0,7.0,62,0.00,,,0.00,Wunderground v.1.15,2013-03-28 13:05:00,
2013-03-28 09:15:00,40.3,28.3,30.11,WNW,284,6.0,6.0,62,0.00,,,0.00,Wunderground v.1.15,2013-03-28 13:15:00,
2013-03-28 09:25:00,40.6,28.6,30.11,WNW,294,8.0,16.0,62,0.00,,,0.00,Wunderground v.1.15,2013-03-28 13:25:00,
2013-03-28 09:30:00,41.3,28.9,30.11,WNW,296,8.0,8.0,61,0.00,,,0.00,Wunderground v.1.15,2013-03-28 13:30:00,
2013-03-28 09:40:00,41.6,28.3,30.11,WNW,291,12.0,12.0,59,0.00,,,0.00,Wunderground v.1.15,2013-03-28 13:40:00,
2013-03-28 09:45:00,41.3,28.0,30.11,West,260,13.0,15.0,59,0.00,,,0.00,Wunderground v.1.15,2013-03-28 13:45:00,
2013-03-28 09:55:00,40.9,27.7,30.12,WNW,301,13.0,13.0,59,0.00,,,0.00,Wunderground v.1.15,2013-03-28 13:55:00,
2013-03-28 10:05:00,40.5,28.1,30.13,NNW,339,11.0,11.0,61,0.00,,,0.00,Wunderground v.1.15,2013-03-28 14:05:00,
2013-03-28 10:10:00,40.2,28.6,30.13,NW,319,11.0,11.0,63,0.00,,,0.00,Wunderground v.1.15,2013-03-28 14:10:00,
2013-03-28 10:20:00,40.6,28.6,30.13,North,360,10.0,19.0,62,0.00,,,0.00,Wunderground v.1.15,2013-03-28 14:20:00,
2013-03-28 10:25:00,41.2,27.5,30.13,NW,318,13.0,13.0,58,0.00,,,0.00,Wunderground v.1.15,2013-03-28 14:25:00,
2013-03-28 10:35:00,41.3,26.8,30.13,WNW,303,13.0,13.0,56,0.00,,,0.00,Wunderground v.1.15,2013-03-28 14:35:00,
2013-03-28 10:40:00,41.2,25.3,30.14,NNW,348,14.0,16.0,53,0.00,,,0.00,Wunderground v.1.15,2013-03-28 14:40:00,
2013-03-28 10:45:00,41.1,25.3,30.14,NNW,328,13.0,15.0,53,0.00,,,0.00,Wunderground v.1.15,2013-03-28 14:45:00,
2013-03-28 10:55:00,41.2,24.9,30.14,WNW,286,13.0,13.0,52,0.00,,,0.00,Wunderground v.1.15,2013-03-28 14:55:00,
2013-03-28 11:00:00,41.8,25.4,30.15,North,355,15.0,15.0,52,0.00,,,0.00,Wunderground v.1.15,2013-03-28 15:00:00,
2013-03-28 11:05:00,42.2,25.3,30.15,NW,317,15.0,15.0,51,0.00,,,0.00,Wunderground v.1.15,2013-03-28 15:05:00,
2013-03-28 11:20:00,43.2,25.8,30.15,NNW,347,11.0,11.0,50,0.00,,,0.00,Wunderground v.1.15,2013-03-28 15:20:00,
2013-03-28 11:25:00,43.6,26.6,30.14,North,355,12.0,16.0,51,0.00,,,0.00,Wunderground v.1.15,2013-03-28 15:25:00,
2013-03-28 11:35:00,44.4,25.9,30.14,North,11,13.0,15.0,48,0.00,,,0.00,Wunderground v.1.15,2013-03-28 15:35:00,
2013-03-28 11:45:00,44.5,26.0,30.14,WNW,296,15.0,15.0,48,0.00,,,0.00,Wunderground v.1.15,2013-03-28 15:45:00,
2013-03-28 11:50:00,44.5,25.0,30.14,NNW,338,14.0,15.0,46,0.00,,,0.00,Wunderground v.1.15,2013-03-28 15:50:00,
2013-03-28 12:00:00,44.1,25.6,30.14,West,267,13.0,13.0,48,0.00,,,0.00,Wunderground v.1.15,2013-03-28 16:00:00,
2013-03-28 12:05:00,44.2,24.2,30.14,NW,323,12.0,13.0,45,0.00,,,0.00,Wunderground v.1.15,2013-03-28 16:05:00,
2013-03-28 12:15:00,44.4,24.9,30.14,NW,304,14.0,15.0,46,0.00,,,0.00,Wunderground v.1.15,2013-03-28 16:15:00,
2013-03-28 12:30:00,44.8,25.3,30.14,NW,306,10.0,15.0,46,0.00,,,0.00,Wunderground v.1.15,2013-03-28 16:30:00,
2013-03-28 12:45:00,44.4,23.8,30.14,NW,325,13.0,13.0,44,0.00,,,0.00,Wunderground v.1.15,2013-03-28 16:45:00,
2013-03-28 12:50:00,44.4,26.4,30.14,North,11,11.0,15.0,49,0.00,,,0.00,Wunderground v.1.15,2013-03-28 16:50:00,
2013-03-28 12:55:00,44.7,25.7,30.14,WNW,286,10.0,10.0,47,0.00,,,0.00,Wunderground v.1.15,2013-03-28 16:55:00,
2013-03-28 13:00:00,45.5,26.4,30.14,West,277,11.0,20.0,47,0.00,,,0.00,Wunderground v.1.15,2013-03-28 17:00:00,
2013-03-28 13:14:00,46.9,26.6,30.14,West,272,12.0,15.0,45,0.00,,,0.00,Wunderground v.1.15,2013-03-28 17:14:00,
2013-03-28 13:25:00,46.1,25.9,30.13,WNW,283,11.0,12.0,45,0.00,,,0.00,Wunderground v.1.15,2013-03-28 17:25:00,
2013-03-28 13:30:00,45.1,25.5,30.14,WNW,282,13.0,15.0,46,0.00,,,0.00,Wunderground v.1.15,2013-03-28 17:30:00,
2013-03-28 13:35:00,44.5,25.5,30.14,NNW,332,13.0,13.0,47,0.00,,,0.00,Wunderground v.1.15,2013-03-28 17:35:00,
2013-03-28 13:45:00,44.8,26.8,30.13,NW,309,10.0,10.0,49,0.00,,,0.00,Wunderground v.1.15,2013-03-28 17:45:00,
2013-03-28 13:50:00,45.4,27.3,30.13,West,274,10.0,10.0,49,0.00,,,0.00,Wunderground v.1.15,2013-03-28 17:50:00,
2013-03-28 14:00:00,45.5,26.4,30.13,NW,321,11.0,11.0,47,0.00,,,0.00,Wunderground v.1.15,2013-03-28 18:00:00,
2013-03-28 14:10:00,45.4,26.8,30.13,NW,323,11.0,11.0,48,0.00,,,0.00,Wunderground v.1.15,2013-03-28 18:10:00,
2013-03-28 14:20:00,45.7,27.6,30.13,NNW,329,10.0,21.0,49,0.00,,,0.00,Wunderground v.1.15,2013-03-28 18:20:00,
2013-03-28 14:30:00,46.3,28.7,30.13,West,260,11.0,12.0,50,0.00,,,0.00,Wunderground v.1.15,2013-03-28 18:30:00,
2013-03-28 14:40:00,45.8,27.7,30.13,WNW,289,14.0,14.0,49,0.00,,,0.00,Wunderground v.1.15,2013-03-28 18:40:00,
2013-03-28 14:50:00,46.9,26.6,30.13,NW,321,12.0,12.0,45,0.00,,,0.00,Wunderground v.1.15,2013-03-28 18:50:00,
2013-03-28 15:00:00,47.3,28.1,30.13,SW,232,9.0,9.0,47,0.00,,,0.00,Wunderground v.1.15,2013-03-28 19:00:00,
2013-03-28 15:05:00,46.4,27.8,30.13,WNW,287,10.0,10.0,48,0.00,,,0.00,Wunderground v.1.15,2013-03-28 19:05:00,
2013-03-28 15:15:00,45.1,27.6,30.13,WNW,292,9.0,13.0,50,0.00,,,0.00,Wunderground v.1.15,2013-03-28 19:15:00,
2013-03-28 15:20:00,44.7,27.2,30.13,WSW,250,10.0,18.0,50,0.00,,,0.00,Wunderground v.1.15,2013-03-28 19:20:00,
2013-03-28 15:30:00,44.4,28.3,30.13,WNW,292,10.0,18.0,53,0.00,,,0.00,Wunderground v.1.15,2013-03-28 19:30:00,
2013-03-28 15:40:00,43.8,29.1,30.13,West,269,13.0,18.0,56,0.00,,,0.00,Wunderground v.1.15,2013-03-28 19:40:00,
2013-03-28 15:50:00,43.3,28.6,30.14,WNW,292,12.0,13.0,56,0.00,,,0.00,Wunderground v.1.15,2013-03-28 19:50:00,
2013-03-28 16:00:00,43.2,28.5,30.14,WSW,243,10.0,10.0,56,0.00,,,0.00,Wunderground v.1.15,2013-03-28 20:00:00,
2013-03-28 16:05:00,43.2,29.0,30.14,NW,306,9.0,10.0,57,0.00,,,0.00,Wunderground v.1.15,2013-03-28 20:05:00,
2013-03-28 16:15:00,43.6,28.9,30.14,West,276,8.0,18.0,56,0.00,,,0.00,Wunderground v.1.15,2013-03-28 20:15:00,
2013-03-28 16:20:00,43.6,28.9,30.14,NW,306,9.0,9.0,56,0.00,,,0.00,Wunderground v.1.15,2013-03-28 20:20:00,
2013-03-28 16:35:00,43.5,28.8,30.14,WSW,253,10.0,15.0,56,0.00,,,0.00,Wunderground v.1.15,2013-03-28 20:35:00,
2013-03-28 16:45:00,43.3,28.6,30.14,NNW,331,9.0,9.0,56,0.00,,,0.00,Wunderground v.1.15,2013-03-28 20:45:00,
2013-03-28 16:50:00,43.2,29.0,30.14,West,279,8.0,9.0,57,0.00,,,0.00,Wunderground v.1.15,2013-03-28 20:50:00,
2013-03-28 16:55:00,43.2,29.0,30.14,WSW,247,8.0,13.0,57,0.00,,,0.00,Wunderground v.1.15,2013-03-28 20:55:00,
2013-03-28 17:00:00,43.1,28.9,30.15,WNW,290,10.0,12.0,57,0.00,,,0.00,Wunderground v.1.15,2013-03-28 21:00:00,
2013-03-28 17:10:00,43.1,28.9,30.15,SW,225,8.0,12.0,57,0.00,,,0.00,Wunderground v.1.15,2013-03-28 21:10:00,
2013-03-28 17:25:00,43.1,28.5,30.15,NNW,329,7.0,7.0,56,0.00,,,0.00,Wunderground v.1.15,2013-03-28 21:25:00,
2013-03-28 17:35:00,43.2,28.5,30.16,NW,306,6.0,10.0,56,0.00,,,0.00,Wunderground v.1.15,2013-03-28 21:35:00,
2013-03-28 17:40:00,43.2,28.1,30.16,NW,317,7.0,10.0,55,0.00,,,0.00,Wunderground v.1.15,2013-03-28 21:40:00,
2013-03-28 17:50:00,43.2,28.5,30.16,West,275,8.0,8.0,56,0.00,,,0.00,Wunderground v.1.15,2013-03-28 21:50:00,
2013-03-28 17:55:00,43.2,28.5,30.16,NW,304,6.0,7.0,56,0.00,,,0.00,Wunderground v.1.15,2013-03-28 21:55:00,
2013-03-28 18:05:00,43.2,28.5,30.16,NNW,329,7.0,8.0,56,0.00,,,0.00,Wunderground v.1.15,2013-03-28 22:05:00,
2013-03-28 18:10:00,43.2,28.1,30.16,WNW,292,8.0,8.0,55,0.00,,,0.00,Wunderground v.1.15,2013-03-28 22:10:00,
2013-03-28 18:15:00,43.2,28.1,30.17,WNW,283,9.0,11.0,55,0.00,,,0.00,Wunderground v.1.15,2013-03-28 22:15:00,
2013-03-28 18:25:00,43.2,28.5,30.17,WSW,254,7.0,7.0,56,0.00,,,0.00,Wunderground v.1.15,2013-03-28 22:25:00,
2013-03-28 18:30:00,43.3,28.2,30.17,WNW,301,7.0,10.0,55,0.00,,,0.00,Wunderground v.1.15,2013-03-28 22:30:00,
2013-03-28 18:40:00,43.5,28.4,30.17,WNW,293,9.0,9.0,55,0.00,,,0.00,Wunderground v.1.15,2013-03-28 22:40:00,
2013-03-28 18:45:00,43.3,28.2,30.17,NW,314,8.0,10.0,55,0.00,,,0.00,Wunderground v.1.15,2013-03-28 22:45:00,
2013-03-28 18:50:00,43.2,28.1,30.17,WNW,302,8.0,14.0,55,0.00,,,0.00,Wunderground v.1.15,2013-03-28 22:50:00,
2013-03-28 18:55:00,43.1,28.0,30.18,NW,315,9.0,9.0,55,0.00,,,0.00,Wunderground v.1.15,2013-03-28 22:55:00,
2013-03-28 19:00:00,43.1,28.5,30.18,NW,314,7.0,7.0,56,0.00,,,0.00,Wunderground v.1.15,2013-03-28 23:00:00,
2013-03-28 19:05:00,42.9,27.8,30.18,WNW,303,6.0,7.0,55,0.00,,,0.00,Wunderground v.1.15,2013-03-28 23:05:00,
2013-03-28 19:15:00,42.9,27.8,30.19,NW,314,8.0,9.0,55,0.00,,,0.00,Wunderground v.1.15,2013-03-28 23:15:00,
2013-03-28 19:25:00,42.8,28.2,30.19,NW,320,6.0,8.0,56,0.00,,,0.00,Wunderground v.1.15,2013-03-28 23:25:00,
2013-03-28 19:30:00,42.6,28.0,30.19,NW,308,5.0,9.0,56,0.00,,,0.00,Wunderground v.1.15,2013-03-28 23:30:00,
2013-03-28 19:40:00,42.5,27.9,30.19,NNW,333,6.0,6.0,56,0.00,,,0.00,Wunderground v.1.15,2013-03-28 23:40:00,
2013-03-28 19:45:00,42.5,27.9,30.19,WNW,290,6.0,6.0,56,0.00,,,0.00,Wunderground v.1.15,2013-03-28 23:45:00,
2013-03-28 19:55:00,42.5,27.9,30.20,West,264,7.0,13.0,56,0.00,,,0.00,Wunderground v.1.15,2013-03-28 23:55:00,
2013-03-28 20:05:00,42.2,28.0,30.20,NW,321,6.0,8.0,57,0.00,,,0.00,Wunderground v.1.15,2013-03-29 00:05:00,
2013-03-28 20:15:00,42.2,28.0,30.20,NW,315,6.0,6.0,57,0.00,,,0.00,Wunderground v.1.15,2013-03-29 00:15:00,
2013-03-28 20:20:00,42.1,27.9,30.20,NW,321,6.0,6.0,57,0.00,,,0.00,Wunderground v.1.15,2013-03-29 00:20:00,
2013-03-28 20:30:00,41.9,28.2,30.21,NW,313,5.0,6.0,58,0.00,,,0.00,Wunderground v.1.15,2013-03-29 00:30:00,
2013-03-28 20:35:00,41.8,28.5,30.21,WNW,295,5.0,5.0,59,0.00,,,0.00,Wunderground v.1.15,2013-03-29 00:35:00,
2013-03-28 20:40:00,41.8,28.5,30.21,West,261,4.0,5.0,59,0.00,,,0.00,Wunderground v.1.15,2013-03-29 00:40:00,
2013-03-28 20:50:00,41.6,28.3,30.21,NW,311,4.0,4.0,59,0.00,,,0.00,Wunderground v.1.15,2013-03-29 00:50:00,
2013-03-28 20:55:00,41.5,28.2,30.21,West,277,5.0,5.0,59,0.00,,,0.00,Wunderground v.1.15,2013-03-29 00:55:00,
2013-03-28 21:05:00,41.3,28.0,30.21,West,267,5.0,5.0,59,0.00,,,0.00,Wunderground v.1.15,2013-03-29 01:05:00,
2013-03-28 21:15:00,41.2,27.9,30.21,West,281,4.0,4.0,59,0.00,,,0.00,Wunderground v.1.15,2013-03-29 01:15:00,
2013-03-28 21:25:00,41.1,27.9,30.22,WNW,296,4.0,9.0,59,0.00,,,0.00,Wunderground v.1.15,2013-03-29 01:25:00,
2013-03-28 21:35:00,41.1,27.9,30.22,West,278,5.0,5.0,59,0.00,,,0.00,Wunderground v.1.15,2013-03-29 01:35:00,
2013-03-28 21:45:00,41.2,27.9,30.22,WNW,300,5.0,7.0,59,0.00,,,0.00,Wunderground v.1.15,2013-03-29 01:45:00,
2013-03-28 21:50:00,41.2,27.9,30.23,WNW,296,5.0,7.0,59,0.00,,,0.00,Wunderground v.1.15,2013-03-29 01:50:00,
2013-03-28 22:00:00,41.1,27.9,30.23,WNW,282,5.0,9.0,59,0.00,,,0.00,Wunderground v.1.15,2013-03-29 02:00:00,
2013-03-28 22:10:00,41.2,28.4,30.23,West,279,5.0,9.0,60,0.00,,,0.00,Wunderground v.1.15,2013-03-29 02:10:00,
2013-03-28 22:15:00,41.2,27.9,30.23,West,266,4.0,10.0,59,0.00,,,0.00,Wunderground v.1.15,2013-03-29 02:15:00,
2013-03-28 22:25:00,41.2,28.4,30.23,NW,313,5.0,5.0,60,0.00,,,0.00,Wunderground v.1.15,2013-03-29 02:25:00,
2013-03-28 22:30:00,41.1,28.3,30.23,NW,311,5.0,5.0,60,0.00,,,0.00,Wunderground v.1.15,2013-03-29 02:30:00,
2013-03-28 22:35:00,41.1,28.3,30.23,NW,311,3.0,3.0,60,0.00,,,0.00,Wunderground v.1.15,2013-03-29 02:35:00,
2013-03-28 22:45:00,40.9,28.5,30.23,West,281,3.0,3.0,61,0.00,,,0.00,Wunderground v.1.15,2013-03-29 02:45:00,
2013-03-28 22:55:00,40.9,28.9,30.23,WNW,294,3.0,3.0,62,0.00,,,0.00,Wunderground v.1.15,2013-03-29 02:55:00,
2013-03-28 23:05:00,40.9,28.9,30.23,WNW,301,3.0,4.0,62,0.00,,,0.00,Wunderground v.1.15,2013-03-29 03:05:00,
2013-03-28 23:15:00,40.9,28.9,30.23,WNW,301,2.0,4.0,62,0.00,,,0.00,Wunderground v.1.15,2013-03-29 03:15:00,
2013-03-28 23:25:00,40.8,28.8,30.23,WNW,289,3.0,3.0,62,0.00,,,0.00,Wunderground v.1.15,2013-03-29 03:25:00,
2013-03-28 23:30:00,40.8,28.8,30.23,WSW,257,3.0,3.0,62,0.00,,,0.00,Wunderground v.1.15,2013-03-29 03:30:00,
2013-03-28 23:35:00,40.8,28.8,30.23,WNW,303,3.0,3.0,62,0.00,,,0.00,Wunderground v.1.15,2013-03-29 03:35:00,
2013-03-28 23:45:00,40.8,29.2,30.23,WNW,286,3.0,5.0,63,0.00,,,0.00,Wunderground v.1.15,2013-03-29 03:45:00,
2013-03-28 23:55:00,40.8,29.2,30.23,NW,306,4.0,5.0,63,0.00,,,0.00,Wunderground v.1.15,2013-03-29 03:55:00,